Date String (YYYY-MM-DD hh:mm:ss) UTC,Instrument flags,Ambient pressure (hPa),Sample flow (lpm),Bypass flow (lpm),Sample temperature (°C),Ambient temperature (°C),ASC tube jacket temperature (°C),LED temperature (°C),Box temperature (°C),Sample RH (%),Span deviation,Mass concentration (μg/m³),Mass concentration (μg/m³),Mass concentration (μg/m³)
DateTimeUTC,F1_M11,P_M11,Q1_M11,Q2_M11,T1_M11,T2_M11,T3_M11,T4_M11,T5_M11,U1_M11,ZSPAN_M11,X0_M11,X2_M11,X1_M11
2022-04-28 10:00:00,,0821.1,5.02,0.00,26.5,25.9,00.0,35.7,28.2,14.8,0005.6,0028.99,0009.52,0005.00
2022-04-28 10:01:00,,0821.1,4.99,0.00,26.5,25.9,00.0,35.7,28.3,15.0,0004.3,0028.87,0009.45,0004.97
2022-04-28 10:02:00,,0821.1,5.01,0.00,26.5,25.9,00.0,35.7,28.3,15.1,0003.4,0029.00,0009.42,0004.96
2022-04-28 10:03:00,,0821.2,4.98,0.00,26.5,25.9,00.0,35.7,28.2,15.1,0003.0,0030.45,0009.46,0004.98
2022-04-28 10:04:00,,0821.2,5.00,0.00,26.5,25.8,00.0,35.6,28.2,15.1,0003.0,0031.54,0009.49,0004.99
2022-04-28 10:05:00,,0821.2,5.02,0.00,26.5,25.9,00.0,35.6,28.2,15.0,0004.5,0031.39,0009.41,0004.99
2022-04-28 10:06:00,,0821.1,5.00,0.00,26.5,25.9,00.0,35.6,28.3,15.0,0005.6,0032.37,0009.38,0004.99
2022-04-28 10:07:00,,0821.1,4.99,0.00,26.5,25.9,00.0,35.6,28.3,14.9,0006.5,0033.88,0009.44,0005.00
2022-04-28 10:08:00,,0821.1,5.00,0.00,26.5,25.9,00.0,35.6,28.3,14.8,0005.4,0033.55,0009.41,0004.97
2022-04-28 10:09:00,,0821.1,4.99,0.00,26.5,26.0,00.0,35.6,28.3,14.7,0003.7,0032.64,0009.41,0004.98
2022-04-28 10:10:00,,0821.1,5.00,0.00,26.6,26.0,00.0,35.6,28.4,14.6,0004.2,0032.44,0009.36,0004.97
2022-04-28 10:11:00,,0821.1,5.02,0.00,26.6,26.0,00.0,35.6,28.4,14.6,0003.6,0032.32,0009.42,0004.97
2022-04-28 10:12:00,,0821.1,4.99,0.00,26.6,26.1,00.0,35.6,28.4,14.6,0000.9,0032.14,0009.46,0004.98
2022-04-28 10:13:00,,0821.1,4.99,0.00,26.6,26.1,00.0,35.6,28.4,14.6,0000.2,0032.69,0009.52,0004.99
2022-04-28 10:14:00,,0821.1,5.01,0.00,26.6,26.1,00.0,35.6,28.5,14.5,0002.3,0031.27,0009.48,0005.00
2022-04-28 10:15:00,,0821.1,5.00,0.00,26.7,26.2,00.0,35.6,28.5,14.5,0002.4,0029.82,0009.53,0005.01
2022-04-28 10:16:00,,0821.1,5.00,0.00,26.7,26.2,00.0,35.6,28.5,14.5,0001.8,0029.03,0009.54,0005.00
2022-04-28 10:17:00,,0821.2,5.00,0.00,26.7,26.2,00.0,35.6,28.5,14.5,0001.3,0027.83,0009.52,0004.99
2022-04-28 10:18:00,,0821.2,4.99,0.00,26.7,26.1,00.0,35.6,28.5,14.5,0001.4,0026.81,0009.52,0004.99
2022-04-28 10:19:00,,0821.2,4.99,0.00,26.7,26.1,00.0,35.6,28.4,14.5,0002.0,0027.05,0009.63,0005.03
2022-04-28 10:20:00,,0821.2,5.01,0.00,26.6,26.0,00.0,35.6,28.4,14.5,0002.3,0027.22,0009.64,0005.02
2022-04-28 10:21:00,,0821.2,5.01,0.00,26.6,25.9,00.0,35.6,28.3,14.5,0002.0,0028.89,0009.69,0005.02
2022-04-28 10:22:00,,0821.2,4.99,0.00,26.5,25.8,00.0,35.6,28.2,14.5,0002.3,0029.55,0009.65,0005.01
2022-04-28 10:23:00,,0821.3,4.99,0.00,26.5,25.7,00.0,35.6,28.2,14.5,0002.3,0030.35,0009.66,0005.02
2022-04-28 10:24:00,,0821.3,5.00,0.00,26.4,25.7,00.0,35.5,28.1,14.5,0002.2,0029.45,0009.64,0005.01
2022-04-28 10:25:00,,0821.3,5.01,0.00,26.4,25.6,00.0,35.5,28.1,14.5,0002.4,0029.39,0009.70,0005.00
2022-04-28 10:26:00,,0821.3,4.99,0.00,26.4,25.6,00.0,35.5,28.0,14.6,0002.2,0029.22,0009.68,0005.00
2022-04-28 10:27:00,,0821.3,5.00,0.00,26.4,25.7,00.0,35.5,28.1,14.6,0002.2,0030.60,0009.72,0005.02
2022-04-28 10:28:00,,0821.3,4.99,0.00,26.4,25.7,00.0,35.5,28.1,14.5,0002.1,0030.85,0009.73,0005.02
2022-04-28 10:29:00,,0821.2,5.01,0.00,26.4,25.8,00.0,35.5,28.2,14.6,0002.3,0030.59,0009.73,0005.03
2022-04-28 10:30:00,,0821.2,5.00,0.00,26.4,25.8,00.0,35.5,28.2,14.6,0002.6,0030.70,0009.72,0005.02
2022-04-28 10:31:00,,0821.3,4.99,0.00,26.4,25.9,00.0,35.5,28.3,15.0,0002.8,0031.05,0009.84,0005.04
2022-04-28 10:32:00,,0821.3,5.01,0.00,26.5,25.9,00.0,35.5,28.3,14.9,0002.7,0030.87,0009.89,0005.03
2022-04-28 10:33:00,,0821.3,5.01,0.00,26.5,25.9,00.0,35.5,28.3,15.0,0002.9,0029.54,0009.86,0005.03
2022-04-28 10:34:00,,0821.3,4.99,0.00,26.5,26.0,00.0,35.5,28.4,14.8,0003.0,0029.99,0009.90,0005.02
2022-04-28 10:35:00,,0821.4,5.00,0.00,26.5,26.0,00.0,35.5,28.4,14.8,0003.7,0029.99,0009.84,0005.02
2022-04-28 10:36:00,,0821.4,4.99,0.00,26.5,26.0,00.0,35.5,28.4,15.0,0003.9,0030.18,0009.76,0005.03
2022-04-28 10:37:00,,0821.4,5.01,0.00,26.5,26.0,00.0,35.5,28.4,14.8,0004.0,0031.07,0009.77,0005.04
2022-04-28 10:38:00,,0821.3,5.00,0.00,26.5,26.0,00.0,35.5,28.4,14.9,0003.8,0030.64,0009.78,0005.04
2022-04-28 10:39:00,,0821.4,5.01,0.00,26.5,26.0,00.0,35.5,28.3,14.9,0004.3,0030.12,0009.82,0005.05
2022-04-28 10:40:00,,0821.3,4.99,0.00,26.5,26.0,00.0,35.5,28.3,14.9,0004.1,0031.57,0009.99,0005.07
2022-04-28 10:41:00,,0821.3,5.00,0.00,26.5,26.0,00.0,35.5,28.3,15.0,0004.0,0031.38,0010.02,0005.08
2022-04-28 10:42:00,,0821.3,4.99,0.00,26.5,25.9,00.0,35.5,28.3,14.8,0003.9,0031.90,0010.05,0005.09
2022-04-28 10:43:00,,0821.3,5.01,0.00,26.5,25.9,00.0,35.5,28.2,14.7,0003.9,0031.36,0009.94,0005.09
2022-04-28 10:44:00,,0821.3,5.01,0.00,26.4,25.8,00.0,35.5,28.2,14.7,0003.6,0031.87,0010.00,0005.10
2022-04-28 10:45:00,,0821.3,5.00,0.00,26.4,25.7,00.0,35.4,28.1,14.5,0003.1,0032.51,0010.04,0005.12
2022-04-28 10:46:00,,0821.3,5.00,0.00,26.4,25.7,00.0,35.4,28.1,14.6,0002.5,0032.37,0010.09,0005.15
2022-04-28 10:47:00,,0821.3,5.02,0.00,26.3,25.6,00.0,35.4,28.0,14.6,0002.5,0032.73,0010.24,0005.15
2022-04-28 10:48:00,,0821.3,5.00,0.00,26.3,25.5,00.0,35.4,28.0,14.6,0002.6,0032.09,0010.25,0005.15
2022-04-28 10:49:00,,0821.3,5.00,0.00,26.3,25.5,00.0,35.4,28.0,14.6,0002.9,0031.28,0010.21,0005.15
2022-04-28 10:50:00,,0821.3,4.99,0.00,26.2,25.5,00.0,35.4,27.9,14.6,0002.3,0031.93,0010.23,0005.15
2022-04-28 10:51:00,,0821.3,5.01,0.00,26.2,25.5,00.0,35.3,27.9,14.7,0002.4,0030.31,0010.10,0005.14
2022-04-28 10:52:00,,0821.3,5.00,0.00,26.2,25.5,00.0,35.3,27.9,14.7,0002.8,0030.37,0010.11,0005.11
2022-04-28 10:53:00,,0821.3,5.00,0.00,26.2,25.6,00.0,35.3,27.9,14.8,0002.8,0031.35,0010.21,0005.11
2022-04-28 10:54:00,,0821.3,4.99,0.00,26.2,25.5,00.0,35.3,27.9,14.9,0002.6,0032.50,0010.28,0005.13
2022-04-28 10:55:00,,0821.3,4.99,0.00,26.1,25.5,00.0,35.3,27.9,14.8,0002.5,0034.61,0010.41,0005.15
2022-04-28 10:56:00,,0821.3,5.00,0.00,26.1,25.5,00.0,35.3,27.9,14.9,0002.7,0034.59,0010.38,0005.15
2022-04-28 10:57:00,,0821.3,5.01,0.00,26.1,25.5,00.0,35.2,27.8,14.9,0003.7,0035.14,0010.37,0005.14
2022-04-28 10:58:00,,0821.3,5.00,0.00,26.1,25.5,00.0,35.2,27.8,14.9,0003.3,0035.24,0010.26,0005.14
2022-04-28 10:59:00,,0821.4,5.00,0.00,26.1,25.5,00.0,35.2,27.9,14.8,0002.6,0035.68,0010.17,0005.14
